FDX791 EGCC-EGLL

Flight info

Callsign FDX791
Flight time 0h 35m
Altitude 19000
Route SANBA N859 HON
Aircraft B738/M-SDE2E3FGHIRWXY/LB1

Departure

Time 2026-05-01 13:36
Airport Manchester Airport (EGCC)

Arrival

Time 2026-05-01 14:11
Airport London Heathrow Airport (EGLL)
Time Latitude Longitude Altitude Speed Heading
2026-05-01 13:00 53.36450 -2.28710 254 ft 0 kts 225°
2026-05-01 13:16 53.36459 -2.28695 254 ft 4 kts 221°
2026-05-01 13:16 53.36480 -2.28668 254 ft 4 kts 208°
2026-05-01 13:16 53.36505 -2.28653 254 ft 4 kts 178°
2026-05-01 13:17 53.36523 -2.28662 254 ft 0 kts 135°
2026-05-01 13:25 53.36516 -2.28650 254 ft 4 kts 135°
2026-05-01 13:26 53.36478 -2.28585 254 ft 10 kts 134°
2026-05-01 13:26 53.36426 -2.28493 254 ft 11 kts 129°
2026-05-01 13:26 53.36395 -2.28381 254 ft 10 kts 118°
2026-05-01 13:26 53.36349 -2.28290 254 ft 10 kts 134°
2026-05-01 13:27 53.36300 -2.28208 254 ft 10 kts 135°
2026-05-01 13:27 53.36252 -2.28127 254 ft 10 kts 134°
2026-05-01 13:27 53.36158 -2.27975 254 ft 9 kts 140°
2026-05-01 13:28 53.36060 -2.27846 254 ft 9 kts 142°
2026-05-01 13:28 53.36013 -2.27785 254 ft 9 kts 142°
2026-05-01 13:29 53.35892 -2.27728 254 ft 9 kts 181°
2026-05-01 13:29 53.35752 -2.27654 249 ft 13 kts 155°
2026-05-01 13:30 53.35586 -2.27475 244 ft 0 kts 141°
2026-05-01 13:31 53.35557 -2.27436 245 ft 8 kts 141°
2026-05-01 13:32 53.35462 -2.27308 247 ft 10 kts 141°
2026-05-01 13:33 53.35207 -2.27230 235 ft 13 kts 191°
2026-05-01 13:33 53.35169 -2.27243 230 ft 0 kts 192°
2026-05-01 13:34 53.35167 -2.27243 230 ft 1 kts 192°
2026-05-01 13:34 53.35055 -2.27282 225 ft 8 kts 195°
2026-05-01 13:35 53.35009 -2.27318 224 ft 0 kts 209°
2026-05-01 13:35 53.34974 -2.27383 224 ft 16 kts 232°
2026-05-01 13:35 53.34238 -2.28919 251 ft 143 kts 231°
2026-05-01 13:36 53.33602 -2.30205 817 ft 155 kts 229°
2026-05-01 13:36 53.32849 -2.31735 1227 ft 180 kts 231°
2026-05-01 13:36 53.32133 -2.35700 2605 ft 213 kts 280°
2026-05-01 13:37 53.32485 -2.38270 2944 ft 237 kts 277°
2026-05-01 13:37 53.32671 -2.41151 3415 ft 257 kts 259°
2026-05-01 13:37 53.31991 -2.43859 4335 ft 253 kts 228°
2026-05-01 13:37 53.30586 -2.45513 5359 ft 248 kts 197°
2026-05-01 13:38 53.27155 -2.45155 7190 ft 255 kts 161°
2026-05-01 13:38 53.25563 -2.43786 8094 ft 259 kts 153°
2026-05-01 13:38 53.23980 -2.42322 8974 ft 262 kts 154°
2026-05-01 13:39 53.22368 -2.40864 9856 ft 265 kts 154°
2026-05-01 13:39 53.20732 -2.39400 10592 ft 273 kts 154°
2026-05-01 13:39 53.18975 -2.37848 10799 ft 299 kts 154°
2026-05-01 13:39 53.17059 -2.36170 10993 ft 323 kts 154°
2026-05-01 13:40 53.15028 -2.34395 11473 ft 335 kts 154°
2026-05-01 13:40 53.12944 -2.32573 12210 ft 340 kts 154°
2026-05-01 13:40 53.10834 -2.30731 13016 ft 345 kts 154°
2026-05-01 13:40 53.08695 -2.28867 13817 ft 349 kts 154°
2026-05-01 13:41 53.06532 -2.26983 14543 ft 353 kts 154°
2026-05-01 13:41 53.04347 -2.25083 15331 ft 356 kts 154°
2026-05-01 13:41 53.02137 -2.23164 16116 ft 360 kts 154°
2026-05-01 13:41 52.99899 -2.21223 16893 ft 364 kts 154°
2026-05-01 13:42 52.97642 -2.19268 17609 ft 369 kts 154°
2026-05-01 13:42 52.95345 -2.17279 18276 ft 375 kts 154°
2026-05-01 13:42 52.93025 -2.15273 18889 ft 378 kts 154°
2026-05-01 13:42 52.90725 -2.13285 19102 ft 377 kts 154°
2026-05-01 13:43 52.88379 -2.11259 19142 ft 383 kts 154°
2026-05-01 13:43 52.86016 -2.09220 19126 ft 383 kts 154°
2026-05-01 13:43 52.83659 -2.07189 19137 ft 381 kts 154°
2026-05-01 13:43 52.81308 -2.05165 19145 ft 381 kts 154°
2026-05-01 13:44 52.78955 -2.03142 19138 ft 381 kts 154°
2026-05-01 13:44 52.76603 -2.01124 19143 ft 381 kts 154°
2026-05-01 13:44 52.74252 -1.99108 19133 ft 380 kts 155°
2026-05-01 13:44 52.71910 -1.97102 19138 ft 380 kts 155°
2026-05-01 13:45 52.69594 -1.94991 19136 ft 381 kts 149°
2026-05-01 13:45 52.67417 -1.92481 19146 ft 382 kts 147°
2026-05-01 13:45 52.65275 -1.89881 19144 ft 383 kts 146°
2026-05-01 13:45 52.63133 -1.87256 19133 ft 384 kts 146°
2026-05-01 13:46 52.60990 -1.84643 19136 ft 384 kts 146°
2026-05-01 13:46 52.58841 -1.82041 19133 ft 384 kts 146°
2026-05-01 13:46 52.56687 -1.79454 19131 ft 384 kts 146°
2026-05-01 13:46 52.55229 -1.77711 19129 ft 383 kts 147°
2026-05-01 13:47 52.53071 -1.75140 19138 ft 383 kts 147°
2026-05-01 13:47 52.50909 -1.72573 19125 ft 384 kts 147°
2026-05-01 13:47 52.48745 -1.70010 19126 ft 383 kts 147°
2026-05-01 13:47 52.46582 -1.67451 19131 ft 383 kts 147°
2026-05-01 13:48 52.44423 -1.64901 19131 ft 383 kts 147°
2026-05-01 13:48 52.42287 -1.62381 19131 ft 383 kts 147°
2026-05-01 13:48 52.40123 -1.59831 19131 ft 383 kts 147°
2026-05-01 13:48 52.37933 -1.57254 19133 ft 383 kts 147°
2026-05-01 13:49 52.35766 -1.54707 19137 ft 383 kts 147°
2026-05-01 13:49 52.33628 -1.52198 19151 ft 383 kts 147°
2026-05-01 13:49 52.31465 -1.49661 19150 ft 383 kts 147°
2026-05-01 13:49 52.29299 -1.47124 19142 ft 381 kts 147°
2026-05-01 13:50 52.27193 -1.44657 19117 ft 366 kts 147°
2026-05-01 13:50 52.25143 -1.42257 18798 ft 359 kts 147°
2026-05-01 13:50 52.23115 -1.39890 18331 ft 357 kts 147°
2026-05-01 13:50 52.21109 -1.37553 17836 ft 352 kts 147°
2026-05-01 13:51 52.19129 -1.35248 17333 ft 348 kts 147°
2026-05-01 13:51 52.17164 -1.32964 16847 ft 345 kts 147°
2026-05-01 13:51 52.15221 -1.30707 16371 ft 341 kts 147°
2026-05-01 13:51 52.13295 -1.28473 15894 ft 338 kts 147°
2026-05-01 13:52 52.11388 -1.26262 15426 ft 335 kts 147°
2026-05-01 13:52 52.09493 -1.24068 14965 ft 333 kts 147°
2026-05-01 13:52 52.07615 -1.21897 14507 ft 330 kts 147°
2026-05-01 13:52 52.05753 -1.19745 14048 ft 328 kts 147°
2026-05-01 13:53 52.03912 -1.17620 13544 ft 327 kts 147°
2026-05-01 13:53 52.00212 -1.13354 12562 ft 322 kts 147°
2026-05-01 13:53 51.98416 -1.11286 12400 ft 310 kts 147°
2026-05-01 13:54 51.96683 -1.09291 12247 ft 300 kts 147°
2026-05-01 13:54 51.95016 -1.07375 12121 ft 290 kts 147°
2026-05-01 13:54 51.93392 -1.05511 11995 ft 280 kts 147°
2026-05-01 13:54 51.91830 -1.03719 11881 ft 271 kts 147°
2026-05-01 13:55 51.90321 -1.01989 11774 ft 262 kts 147°
2026-05-01 13:55 51.88853 -1.00310 11658 ft 254 kts 147°
2026-05-01 13:55 51.87428 -0.98681 11554 ft 246 kts 148°
2026-05-01 13:55 51.86053 -0.97106 11448 ft 238 kts 146°
2026-05-01 13:56 51.84949 -0.95167 11260 ft 241 kts 124°
2026-05-01 13:56 51.84194 -0.92766 11051 ft 239 kts 121°
2026-05-01 13:56 51.83464 -0.90354 10822 ft 238 kts 121°
2026-05-01 13:56 51.82740 -0.87958 10581 ft 237 kts 121°
2026-05-01 13:57 51.82015 -0.85565 10341 ft 237 kts 121°
2026-05-01 13:57 51.81287 -0.83169 10092 ft 237 kts 121°
2026-05-01 13:57 51.80558 -0.80782 9829 ft 237 kts 121°
2026-05-01 13:57 51.79831 -0.78402 9554 ft 236 kts 121°
2026-05-01 13:58 51.79102 -0.76022 9302 ft 235 kts 121°
2026-05-01 13:58 51.78377 -0.73656 9057 ft 235 kts 121°
2026-05-01 13:58 51.77652 -0.71296 8794 ft 234 kts 121°
2026-05-01 13:58 51.76929 -0.68949 8546 ft 233 kts 121°
2026-05-01 13:59 51.76210 -0.66611 8323 ft 232 kts 121°
2026-05-01 13:59 51.75489 -0.64266 8201 ft 234 kts 121°
2026-05-01 13:59 51.74754 -0.61895 8172 ft 238 kts 121°
2026-05-01 13:59 51.74009 -0.59490 8164 ft 241 kts 121°
2026-05-01 14:00 51.73236 -0.57075 8162 ft 242 kts 127°
2026-05-01 14:00 51.72043 -0.55294 8164 ft 232 kts 157°
2026-05-01 14:00 51.70491 -0.54834 8150 ft 226 kts 188°
2026-05-01 14:00 51.69089 -0.55790 8137 ft 218 kts 219°
2026-05-01 14:01 51.68116 -0.57599 8162 ft 213 kts 229°
2026-05-01 14:01 51.67238 -0.59518 8149 ft 212 kts 230°
2026-05-01 14:01 51.66373 -0.61434 8104 ft 210 kts 231°
2026-05-01 14:01 51.65511 -0.63346 7788 ft 217 kts 231°
2026-05-01 14:02 51.64613 -0.65336 7472 ft 221 kts 230°
2026-05-01 14:02 51.63696 -0.67359 7142 ft 225 kts 231°
2026-05-01 14:02 51.62759 -0.69406 6809 ft 230 kts 231°
2026-05-01 14:02 51.61808 -0.71481 6466 ft 230 kts 231°
2026-05-01 14:03 51.60860 -0.73541 6094 ft 227 kts 231°
2026-05-01 14:03 51.59925 -0.75561 5710 ft 224 kts 230°
2026-05-01 14:03 51.59002 -0.77558 5298 ft 222 kts 230°
2026-05-01 14:03 51.58091 -0.79545 4890 ft 220 kts 230°
2026-05-01 14:04 51.57187 -0.81522 4424 ft 219 kts 231°
2026-05-01 14:04 51.56285 -0.83483 4035 ft 215 kts 230°
2026-05-01 14:04 51.55433 -0.85334 3977 ft 198 kts 231°
2026-05-01 14:04 51.54621 -0.87070 3961 ft 193 kts 231°
2026-05-01 14:05 51.53776 -0.88709 3971 ft 189 kts 217°
2026-05-01 14:05 51.52585 -0.89406 4000 ft 184 kts 184°
2026-05-01 14:05 51.51289 -0.89435 3983 ft 188 kts 181°
2026-05-01 14:05 51.49980 -0.89429 3972 ft 188 kts 180°
2026-05-01 14:06 51.48743 -0.88866 3985 ft 191 kts 143°
2026-05-01 14:06 51.48113 -0.87000 3996 ft 200 kts 103°
2026-05-01 14:06 51.47973 -0.84785 3987 ft 200 kts 103°
2026-05-01 14:06 51.47765 -0.82606 3997 ft 202 kts 98°
2026-05-01 14:07 51.47714 -0.80362 3891 ft 201 kts 95°
2026-05-01 14:07 51.47711 -0.78085 3629 ft 202 kts 93°
2026-05-01 14:07 51.47705 -0.75878 3406 ft 199 kts 94°
2026-05-01 14:08 51.47709 -0.71493 2881 ft 191 kts 94°
2026-05-01 14:08 51.47718 -0.69370 2638 ft 185 kts 96°
2026-05-01 14:08 51.47714 -0.67371 2381 ft 177 kts 95°
2026-05-01 14:08 51.47704 -0.65404 2186 ft 173 kts 94°
2026-05-01 14:09 51.47714 -0.63501 1930 ft 170 kts 96°
2026-05-01 14:09 51.47723 -0.61622 1690 ft 166 kts 97°
2026-05-01 14:09 51.47724 -0.59773 1477 ft 163 kts 95°
2026-05-01 14:09 51.47728 -0.57955 1249 ft 168 kts 94°
2026-05-01 14:10 51.47730 -0.56113 1036 ft 165 kts 95°
2026-05-01 14:10 51.47735 -0.54353 815 ft 152 kts 94°
2026-05-01 14:10 51.47740 -0.52673 637 ft 156 kts 95°
2026-05-01 14:10 51.47754 -0.50879 476 ft 164 kts 96°
2026-05-01 14:11 51.47755 -0.49046 207 ft 166 kts 95°
2026-05-01 14:11 51.47759 -0.45886 85 ft 92 kts 89°
2026-05-01 14:11 51.47762 -0.45220 91 ft 32 kts 89°
2026-05-01 14:12 51.47761 -0.45006 95 ft 19 kts 95°
2026-05-01 14:12 51.47695 -0.44838 95 ft 16 kts 146°
2026-05-01 14:12 51.47627 -0.44796 95 ft 8 kts 192°
2026-05-01 14:12 51.47621 -0.44800 94 ft 0 kts 204°
2026-05-01 14:15 51.47618 -0.44797 94 ft 1 kts 165°
2026-05-01 14:15 51.47608 -0.44778 94 ft 4 kts 124°
2026-05-01 14:15 51.47601 -0.44731 92 ft 5 kts 94°
2026-05-01 14:15 51.47600 -0.44654 91 ft 9 kts 91°
2026-05-01 14:16 51.47599 -0.44538 91 ft 11 kts 91°
2026-05-01 14:16 51.47597 -0.44411 90 ft 12 kts 92°
2026-05-01 14:16 51.47595 -0.44274 92 ft 13 kts 89°
2026-05-01 14:16 51.47589 -0.44121 88 ft 14 kts 112°
2026-05-01 14:17 51.47508 -0.44061 92 ft 13 kts 178°
2026-05-01 14:17 51.47417 -0.44059 89 ft 13 kts 179°
2026-05-01 14:17 51.47326 -0.44058 89 ft 14 kts 180°
2026-05-01 14:17 51.47214 -0.44058 88 ft 18 kts 179°
2026-05-01 14:18 51.47068 -0.44056 87 ft 22 kts 180°
2026-05-01 14:18 51.46914 -0.44056 91 ft 22 kts 180°
2026-05-01 14:18 51.46766 -0.44054 88 ft 21 kts 181°
2026-05-01 14:18 51.46671 -0.44055 88 ft 20 kts 176°
2026-05-01 14:19 51.46495 -0.44055 88 ft 18 kts 185°
2026-05-01 14:19 51.46381 -0.44137 91 ft 18 kts 210°
2026-05-01 14:19 51.46328 -0.44300 90 ft 18 kts 269°
2026-05-01 14:19 51.46326 -0.44503 89 ft 18 kts 268°
2026-05-01 14:20 51.46320 -0.44702 89 ft 18 kts 268°
2026-05-01 14:20 51.46316 -0.45079 91 ft 16 kts 270°
2026-05-01 14:20 51.46317 -0.45257 88 ft 16 kts 271°
2026-05-01 14:21 51.46317 -0.45428 91 ft 15 kts 269°
2026-05-01 14:21 51.46318 -0.45592 94 ft 14 kts 274°
2026-05-01 14:21 51.46324 -0.45748 90 ft 14 kts 270°
2026-05-01 14:22 51.46322 -0.46039 91 ft 12 kts 270°
2026-05-01 14:22 51.46307 -0.46144 91 ft 8 kts 234°
2026-05-01 14:22 51.46258 -0.46173 92 ft 7 kts 182°
2026-05-01 14:22 51.46237 -0.46174 91 ft 2 kts 180°
2026-05-01 14:23 51.46230 -0.46174 93 ft 0 kts 181°